Location: Goettingen
(51.5300°N, 9.9433°E)
Time: 11:38:27
(UTC+02:00)

N. Korean satellite - Pass Details

Date: 02 October 2021
Orbit: 450 x 495 km, 97.3° (Epoch: 15 October)

Event Time Altitude Azimuth Distance (km) Brightness Sun altitude
Rises 05:21:22 0° 34° (NNE) 2,551 11.1 -19.4°
Reaches altitude 10° 05:25:21 10° 78° (ENE) 1,676 10.5 -18.8°
Maximum altitude 05:25:52 10° 87° (E) 1,661 10.4 -18.7°
Drops below altitude 10° 05:26:24 10° 95° (E) 1,678 10.3 -18.7°
Sets 05:30:23 0° 140° (SE) 2,561 10.5 -18.1°
